QPF
0.18 0.09 0.09 0.13 0.13 0.10 0.07 0.04 0.03 0.04 0.06 0.06 0.06 0.05 0.04 0.03 0.02 0.01 0.01 0.02 0.02 0.02 0.03 0.06 0.09 0.09 0.07 0.05 0.03 0.02 0.02 0.02 0.01 0.02 0.02 0.02 0.02 0.03 0.03 0.02 0.03 0.03 0.03 0.03 0.02 0.01 0.01 0.01 0.01
0.10 0.07 0.14 0.16 0.13 0.10 0.07 0.05 0.03 0.05 0.06 0.05 0.06 0.06 0.04 0.02 0.01 0.00 0.01 0.02 0.03 0.02 0.04 0.05 0.08 0.08 0.06 0.04 0.04 0.03 0.02 0.01 0.01 0.01 0.01 0.01 0.02 0.02 0.03 0.02 0.02 0.03 0.03 0.03 0.03 0.02 0.01 0.00 0.00
0.07 0.11 0.18 0.15 0.11 0.08 0.07 0.04 0.03 0.04 0.05 0.05 0.07 0.06 0.04 0.02 0.01 0.01 0.01 0.01 0.02 0.03 0.03 0.04 0.05 0.04 0.03 0.03 0.03 0.02 0.01 0.01 0.01 0.01 0.01 0.01 0.01 0.01 0.01 0.02 0.02 0.03 0.03 0.03 0.03 0.02 0.02 0.02 0.01
0.12 0.14 0.15 0.12 0.08 0.06 0.04 0.03 0.03 0.04 0.03 0.04 0.05 0.03 0.03 0.01 0.01 0.01 0.01 0.02 0.03 0.03 0.04 0.04 0.03 0.03 0.03 0.02 0.01 0.01 0.01 0.01 0.01 0.01 0.01 0.01 0.02 0.02 0.02 0.02 0.03 0.03 0.04 0.04 0.04 0.03 0.02 0.02 0.02
0.12 0.13 0.09 0.08 0.06 0.05 0.04 0.03 0.03 0.04 0.04 0.04 0.02 0.02 0.01 0.01 0.01 0.01 0.02 0.02 0.01 0.02 0.03 0.04 0.02 0.01 0.01 0.01 0.01 0.01 0.01 0.01 0.01 0.01 0.02 0.02 0.02 0.02 0.01 0.01 0.02 0.03 0.04 0.04 0.05 0.04 0.05 0.05 0.04
0.17 0.13 0.05 0.04 0.05 0.05 0.04 0.02 0.03 0.04 0.03 0.03 0.02 0.01 0.01 0.01 0.01 0.01 0.01 0.01 0.01 0.00 0.01 0.03 0.03 0.01 0.01 0.01 0.02 0.01 0.01 0.01 0.01 0.01 0.01 0.01 0.02 0.02 0.02 0.02 0.02 0.03 0.03 0.04 0.04 0.05 0.05 0.05 0.05
0.20 0.11 0.05 0.03 0.04 0.06 0.05 0.04 0.04 0.04 0.03 0.03 0.02 0.01 0.01 0.01 0.01 0.01 0.01 0.01 0.01 0.01 0.01 0.02 0.03 0.02 0.02 0.02 0.03 0.01 0.01 0.01 0.01 0.01 0.01 0.01 0.01 0.01 0.01 0.02 0.03 0.04 0.04 0.05 0.04 0.04 0.04 0.05 0.05
0.26 0.14 0.07 0.04 0.04 0.05 0.05 0.05 0.03 0.03 0.03 0.01 0.01 0.01 0.01 0.01 0.00 0.01 0.01 0.01 0.01 0.01 0.01 0.01 0.01 0.02 0.02 0.02 0.01 0.01 0.01 0.01 0.00 0.01 0.01 0.01 0.01 0.01 0.01 0.01 0.02 0.04 0.04 0.04 0.04 0.04 0.04 0.07 0.07
0.24 0.14 0.08 0.05 0.04 0.05 0.04 0.05 0.04 0.02 0.02 0.01 0.02 0.01 0.00 0.00 0.00 0.01 0.01 0.01 0.01 0.01 0.00 0.00 0.00 0.01 0.01 0.00 0.00 0.00 0.00 0.00 0.00 0.00 0.00 0.00 0.00 0.00 0.00 0.00 0.01 0.02 0.03 0.03 0.04 0.05 0.06 0.07 0.07
0.16 0.10 0.10 0.06 0.04 0.04 0.05 0.05 0.04 0.03 0.02 0.03 0.03 0.01 0.01 0.00 0.01 0.01 0.01 0.01 0.01 0.01 0.00 0.00 0.00 0.00 0.00 0.00 0.00 0.00 0.00 0.00 0.00 0.00 0.00 0.00 0.00 0.00 0.00 0.00 0.01 0.01 0.01 0.02 0.02 0.03 0.05 0.06 0.05
0.12 0.11 0.10 0.06 0.06 0.04 0.05 0.05 0.05 0.05 0.03 0.02 0.02 0.01 0.01 0.01 0.01 0.01 0.01 0.01 0.00 0.00 0.00 0.00 0.00 0.00 0.00 0.00 0.00 0.00 0.00 0.00 0.00 0.00 0.00 0.00 0.00 0.00 0.00 0.00 0.00 0.00 0.01 0.01 0.02 0.02 0.03 0.03 0.03
0.12 0.11 0.10 0.09 0.06 0.05 0.06 0.07 0.06 0.07 0.03 0.02 0.02 0.01 0.01 0.01 0.01 0.00 0.00 0.00 0.00 0.00 0.00 0.00 0.00 0.00 0.00 0.00 0.00 0.00 0.00 0.00 0.00 0.00 0.00 0.00 0.00 0.00 0.00 0.00 0.00 0.00 0.00 0.01 0.01 0.01 0.02 0.02 0.01
0.10 0.11 0.07 0.07 0.07 0.06 0.06 0.07 0.06 0.09 0.05 0.02 0.02 0.01 0.01 0.00 0.00 0.01 0.00 0.00 0.00 0.00 0.00 0.00 0.00 0.00 0.00 0.00 0.00 0.00 0.00 0.00 0.00 0.00 0.00 0.00 0.00 0.00 0.00 0.00 0.00 0.00 0.00 0.00 0.00 0.01 0.01 0.01 0.01
0.07 0.09 0.09 0.08 0.08 0.08 0.08 0.07 0.05 0.05 0.04 0.02 0.02 0.01 0.01 0.00 0.00 0.00 0.00 0.00 0.00 0.00 0.00 0.00 0.00 0.00 0.00 0.00 0.00 0.00 0.00 0.00 0.00 0.00 0.00 0.00 0.00 0.00 0.00 0.00 0.00 0.00 0.00 0.01 0.01 0.01 0.01 0.01 0.01
0.06 0.09 0.11 0.10 0.08 0.08 0.07 0.07 0.05 0.05 0.04 0.03 0.02 0.02 0.01 0.01 0.00 0.00 0.00 0.00 0.00 0.00 0.00 0.00 0.00 0.00 0.00 0.00 0.00 0.00 0.00 0.00 0.00 0.00 0.00 0.00 0.00 0.00 0.00 0.00 0.00 0.00 0.00 0.01 0.01 0.01 0.02 0.02 0.02
0.07 0.09 0.10 0.08 0.08 0.05 0.07 0.07 0.04 0.03 0.03 0.02 0.02 0.03 0.02 0.01 0.00 0.00 0.00 0.00 0.00 0.00 0.00 0.00 0.00 0.00 0.00 0.00 0.00 0.00 0.00 0.00 0.00 0.00 0.00 0.00 0.00 0.00 0.00 0.00 0.00 0.00 0.00 0.00 0.01 0.02 0.02 0.02 0.01
0.04 0.07 0.06 0.04 0.05 0.05 0.04 0.03 0.02 0.02 0.02 0.02 0.02 0.02 0.02 0.01 0.00 0.00 0.00 0.00 0.00 0.00 0.00 0.00 0.00 0.00 0.00 0.00 0.00 0.00 0.00 0.00 0.00 0.00 0.00 0.00 0.00 0.00 0.00 0.00 0.00 0.00 0.00 0.00 0.01 0.01 0.01 0.01 0.01
0.03 0.04 0.04 0.02 0.03 0.03 0.02 0.01 0.01 0.01 0.01 0.01 0.01 0.01 0.01 0.01 0.00 0.00 0.00 0.00 0.00 0.00 0.00 0.00 0.00 0.00 0.00 0.00 0.00 0.00 0.00 0.00 0.00 0.00 0.00 0.00 0.00 0.00 0.00 0.00 0.00 0.00 0.01 0.00 0.01 0.01 0.01 0.01 0.01
0.02 0.02 0.02 0.03 0.01 0.01 0.01 0.00 0.00 0.00 0.00 0.00 0.00 0.01 0.01 0.01 0.00 0.01 0.01 0.00 0.00 0.00 0.00 0.00 0.00 0.00 0.00 0.00 0.00 0.00 0.00 0.00 0.00 0.00 0.00 0.00 0.00 0.00 0.00 0.00 0.00 0.01 0.01 0.01 0.01 0.02 0.03 0.02 0.01
0.02 0.02 0.02 0.02 0.01 0.00 0.00 0.00 0.00 0.00 0.00 0.00 0.00 0.00 0.00 0.00 0.00 0.00 0.00 0.00 0.00 0.00 0.00 0.00 0.00 0.00 0.00 0.00 0.00 0.00 0.00 0.00 0.00 0.00 0.00 0.00 0.00 0.00 0.00 0.00 0.01 0.02 0.02 0.02 0.02 0.02 0.04 0.02 0.01
0.02 0.01 0.01 0.01 0.01 0.00 0.00 0.00 0.01 0.00 0.00 0.00 0.00 0.00 0.00 0.00 0.00 0.00 0.00 0.00 0.00 0.00 0.00 0.00 0.00 0.00 0.00 0.00 0.00 0.00 0.00 0.00 0.00 0.00 0.00 0.00 0.00 0.00 0.00 0.00 0.01 0.01 0.01 0.03 0.02 0.02 0.04 0.03 0.01
0.01 0.01 0.01 0.00 0.00 0.00 0.00 0.00 0.00 0.00 0.00 0.00 0.00 0.00 0.00 0.00 0.00 0.00 0.00 0.00 0.00 0.00 0.00 0.00 0.00 0.00 0.00 0.00 0.00 0.00 0.00 0.00 0.00 0.00 0.00 0.00 0.00 0.00 0.00 0.00 0.01 0.02 0.01 0.02 0.03 0.03 0.03 0.03 0.01
0.01 0.01 0.01 0.00 0.00 0.00 0.00 0.00 0.00 0.00 0.00 0.00 0.00 0.00 0.00 0.00 0.00 0.00 0.00 0.00 0.00 0.00 0.00 0.00 0.00 0.00 0.00 0.00 0.00 0.00 0.00 0.00 0.00 0.00 0.00 0.00 0.00 0.00 0.00 0.00 0.00 0.01 0.00 0.01 0.02 0.03 0.03 0.03 0.03
0.00 0.01 0.00 0.00 0.00 0.00 0.00 0.00 0.00 0.00 0.00 0.00 0.00 0.00 0.00 0.00 0.00 0.00 0.00 0.00 0.00 0.00 0.00 0.00 0.00 0.00 0.00 0.00 0.00 0.00 0.00 0.00 0.00 0.00 0.00 0.00 0.00 0.00 0.00 0.00 0.00 0.00 0.00 0.01 0.02 0.02 0.02 0.03 0.03
0.00 0.00 0.00 0.00 0.00 0.00 0.00 0.00 0.00 0.00 0.00 0.00 0.00 0.00 0.00 0.00 0.00 0.00 0.00 0.00 0.00 0.00 0.00 0.00 0.00 0.00 0.00 0.00 0.00 0.00 0.00 0.00 0.00 0.00 0.00 0.00 0.00 0.00 0.00 0.00 0.00 0.00 0.01 0.02 0.03 0.02 0.02 0.02 0.04
0.00 0.00 0.00 0.00 0.00 0.00 0.00 0.00 0.00 0.00 0.00 0.00 0.00 0.00 0.00 0.00 0.00 0.00 0.00 0.00 0.00 0.00 0.00 0.00 0.00 0.00 0.00 0.00 0.00 0.00 0.00 0.00 0.00 0.00 0.00 0.00 0.00 0.00 0.00 0.00 0.00 0.00 0.01 0.02 0.02 0.03 0.04 0.05 0.07
0.00 0.00 0.00 0.00 0.00 0.00 0.00 0.00 0.00 0.00 0.00 0.00 0.00 0.00 0.00 0.00 0.00 0.00 0.00 0.00 0.00 0.00 0.00 0.00 0.00 0.00 0.00 0.00 0.00 0.00 0.00 0.00 0.00 0.00 0.00 0.00 0.01 0.01 0.00 0.00 0.00 0.00 0.01 0.01 0.01 0.01 0.03 0.05 0.05
0.00 0.00 0.00 0.00 0.00 0.00 0.00 0.00 0.00 0.00 0.00 0.00 0.00 0.00 0.00 0.00 0.00 0.00 0.00 0.00 0.00 0.00 0.00 0.00 0.00 0.00 0.00 0.00 0.00 0.00 0.00 0.00 0.00 0.00 0.00 0.00 0.00 0.01 0.01 0.00 0.00 0.00 0.00 0.01 0.01 0.01 0.02 0.02 0.03
0.00 0.00 0.00 0.00 0.00 0.00 0.00 0.00 0.00 0.00 0.00 0.00 0.00 0.00 0.00 0.00 0.00 0.00 0.00 0.00 0.00 0.00 0.00 0.00 0.00 0.00 0.00 0.00 0.00 0.00 0.00 0.00 0.00 0.00 0.00 0.00 0.00 0.00 0.00 0.00 0.00 0.00 0.00 0.01 0.01 0.01 0.01 0.01 0.02
0.00 0.00 0.00 0.00 0.00 0.00 0.00 0.00 0.00 0.00 0.00 0.00 0.00 0.00 0.00 0.00 0.00 0.00 0.00 0.00 0.00 0.00 0.00 0.00 0.00 0.00 0.00 0.00 0.00 0.00 0.00 0.00 0.00 0.00 0.00 0.00 0.00 0.00 0.00 0.00 0.00 0.00 0.00 0.00 0.00 0.00 0.01 0.01 0.01
MSLP
1009.86 1010.64 1011.65 1012.74 1013.75 1014.56 1015.07 1015.28 1015.22 1014.99 1014.72 1014.48 1014.34 1014.29 1014.30 1014.29 1014.18 1013.93 1013.53 1013.01 1012.47 1011.97 1011.61 1011.41 1011.41 1011.54 1011.75 1011.97 1012.15 1012.26 1012.31 1012.33 1012.34 1012.40 1012.50 1012.66 1012.84 1013.01 1013.14 1013.21 1013.23 1013.20 1013.14 1013.09 1013.05 1013.02 1013.01 1013.00 1012.98
1010.26 1011.25 1012.38 1013.50 1014.45 1015.11 1015.41 1015.38 1015.10 1014.67 1014.24 1013.90 1013.70 1013.63 1013.64 1013.66 1013.60 1013.41 1013.08 1012.66 1012.21 1011.82 1011.56 1011.46 1011.52 1011.71 1011.95 1012.19 1012.39 1012.51 1012.57 1012.60 1012.62 1012.69 1012.79 1012.92 1013.07 1013.20 1013.28 1013.31 1013.28 1013.22 1013.15 1013.10 1013.06 1013.04 1013.04 1013.03 1013.00
1010.86 1011.99 1013.18 1014.26 1015.08 1015.55 1015.63 1015.38 1014.89 1014.30 1013.75 1013.33 1013.10 1013.03 1013.06 1013.10 1013.09 1012.95 1012.71 1012.38 1012.04 1011.76 1011.60 1011.59 1011.73 1011.95 1012.22 1012.47 1012.66 1012.78 1012.84 1012.86 1012.89 1012.94 1013.02 1013.13 1013.22 1013.30 1013.32 1013.28 1013.21 1013.12 1013.03 1012.98 1012.95 1012.95 1012.97 1012.97 1012.96
1011.64 1012.83 1014.00 1014.98 1015.62 1015.88 1015.74 1015.29 1014.64 1013.94 1013.32 1012.89 1012.65 1012.59 1012.65 1012.73 1012.75 1012.68 1012.50 1012.27 1012.03 1011.85 1011.78 1011.84 1012.02 1012.27 1012.54 1012.77 1012.94 1013.03 1013.07 1013.09 1013.10 1013.13 1013.19 1013.25 1013.30 1013.31 1013.27 1013.18 1013.06 1012.94 1012.84 1012.78 1012.77 1012.79 1012.84 1012.88 1012.90
1012.53 1013.72 1014.79 1015.60 1016.05 1016.09 1015.76 1015.16 1014.41 1013.66 1013.04 1012.62 1012.42 1012.40 1012.49 1012.60 1012.66 1012.63 1012.52 1012.36 1012.20 1012.10 1012.10 1012.20 1012.40 1012.63 1012.87 1013.06 1013.18 1013.23 1013.24 1013.23 1013.22 1013.24 1013.28 1013.31 1013.32 1013.28 1013.19 1013.06 1012.90 1012.75 1012.63 1012.57 1012.58 1012.62 1012.70 1012.78 1012.84
1013.43 1014.55 1015.47 1016.09 1016.32 1016.17 1015.69 1014.99 1014.21 1013.48 1012.92 1012.56 1012.43 1012.46 1012.58 1012.72 1012.81 1012.81 1012.74 1012.62 1012.52 1012.47 1012.50 1012.62 1012.80 1012.99 1013.16 1013.28 1013.34 1013.34 1013.31 1013.28 1013.27 1013.28 1013.31 1013.33 1013.32 1013.26 1013.14 1012.97 1012.78 1012.61 1012.48 1012.41 1012.42 1012.48 1012.58 1012.69 1012.78
1014.23 1015.21 1015.95 1016.35 1016.38 1016.07 1015.50 1014.78 1014.03 1013.38 1012.92 1012.67 1012.62 1012.70 1012.86 1013.02 1013.11 1013.13 1013.08 1012.99 1012.92 1012.89 1012.93 1013.03 1013.16 1013.29 1013.39 1013.43 1013.42 1013.37 1013.31 1013.26 1013.25 1013.27 1013.32 1013.35 1013.34 1013.27 1013.14 1012.95 1012.75 1012.55 1012.41 1012.33 1012.32 1012.38 1012.48 1012.60 1012.72
1014.83 1015.64 1016.17 1016.37 1016.23 1015.81 1015.19 1014.50 1013.84 1013.31 1012.98 1012.84 1012.87 1013.02 1013.20 1013.35 1013.45 1013.46 1013.41 1013.34 1013.28 1013.26 1013.28 1013.35 1013.44 1013.50 1013.53 1013.50 1013.43 1013.34 1013.26 1013.22 1013.22 1013.26 1013.33 1013.39 1013.40 1013.34 1013.21 1013.02 1012.80 1012.59 1012.42 1012.31 1012.28 1012.32 1012.41 1012.52 1012.64
1015.17 1015.79 1016.12 1016.13 1015.86 1015.38 1014.77 1014.15 1013.61 1013.22 1013.01 1012.98 1013.09 1013.27 1013.46 1013.61 1013.69 1013.69 1013.64 1013.57 1013.52 1013.50 1013.51 1013.55 1013.60 1013.61 1013.59 1013.51 1013.41 1013.30 1013.22 1013.18 1013.21 1013.28 1013.38 1013.46 1013.50 1013.46 1013.34 1013.15 1012.92 1012.69 1012.50 1012.36 1012.29 1012.29 1012.35 1012.44 1012.54
1015.26 1015.69 1015.83 1015.69 1015.33 1014.82 1014.26 1013.73 1013.31 1013.05 1012.96 1013.02 1013.17 1013.37 1013.56 1013.69 1013.75 1013.74 1013.69 1013.63 1013.58 1013.57 1013.58 1013.62 1013.64 1013.63 1013.58 1013.50 1013.39 1013.28 1013.21 1013.19 1013.24 1013.34 1013.46 1013.57 1013.62 1013.60 1013.49 1013.31 1013.07 1012.83 1012.60 1012.43 1012.32 1012.28 1012.29 1012.35 1012.43
1015.14 1015.40 1015.39 1015.14 1014.72 1014.22 1013.71 1013.27 1012.95 1012.80 1012.79 1012.90 1013.08 1013.27 1013.44 1013.55 1013.59 1013.58 1013.53 1013.49 1013.46 1013.47 1013.50 1013.55 1013.59 1013.59 1013.56 1013.49 1013.40 1013.32 1013.27 1013.27 1013.34 1013.45 1013.58 1013.69 1013.75 1013.73 1013.63 1013.45 1013.21 1012.95 1012.70 1012.50 1012.35 1012.27 1012.24 1012.26 1012.32
1014.93 1015.04 1014.91 1014.58 1014.14 1013.65 1013.20 1012.83 1012.59 1012.50 1012.53 1012.65 1012.82 1012.99 1013.13 1013.22 1013.25 1013.24 1013.22 1013.20 1013.21 1013.25 1013.32 1013.40 1013.48 1013.52 1013.53 1013.50 1013.46 1013.41 1013.39 1013.41 1013.48 1013.58 1013.69 1013.79 1013.84 1013.81 1013.71 1013.53 1013.30 1013.04 1012.78 1012.55 1012.38 1012.26 1012.21 1012.20 1012.24
1014.73 1014.72 1014.50 1014.13 1013.68 1013.22 1012.80 1012.49 1012.29 1012.21 1012.24 1012.34 1012.47 1012.61 1012.71 1012.78 1012.81 1012.82 1012.82 1012.84 1012.89 1012.97 1013.09 1013.22 1013.34 1013.45 1013.52 1013.55 1013.56 1013.56 1013.57 1013.59 1013.64 1013.71 1013.79 1013.85 1013.87 1013.83 1013.73 1013.56 1013.34 1013.08 1012.83 1012.59 1012.40 1012.27 1012.20 1012.18 1012.21
1014.63 1014.54 1014.26 1013.87 1013.43 1012.99 1012.60 1012.30 1012.10 1012.01 1011.99 1012.04 1012.12 1012.21 1012.28 1012.34 1012.37 1012.40 1012.43 1012.49 1012.57 1012.69 1012.85 1013.03 1013.21 1013.38 1013.52 1013.62 1013.69 1013.73 1013.76 1013.78 1013.80 1013.82 1013.85 1013.86 1013.85 1013.79 1013.69 1013.53 1013.32 1013.09 1012.85 1012.62 1012.43 1012.30 1012.22 1012.21 1012.24
1014.68 1014.53 1014.23 1013.84 1013.41 1012.99 1012.62 1012.31 1012.08 1011.93 1011.85 1011.83 1011.84 1011.88 1011.92 1011.97 1012.01 1012.06 1012.12 1012.20 1012.31 1012.46 1012.64 1012.86 1013.09 1013.31 1013.52 1013.69 1013.82 1013.90 1013.94 1013.94 1013.93 1013.90 1013.87 1013.83 1013.78 1013.70 1013.60 1013.46 1013.28 1013.08 1012.86 1012.66 1012.48 1012.34 1012.27 1012.26 1012.31
1014.86 1014.68 1014.38 1014.02 1013.62 1013.23 1012.86 1012.53 1012.25 1012.03 1011.86 1011.75 1011.69 1011.67 1011.68 1011.72 1011.77 1011.83 1011.91 1012.00 1012.13 1012.28 1012.48 1012.71 1012.97 1013.25 1013.50 1013.73 1013.91 1014.02 1014.08 1014.07 1014.02 1013.94 1013.86 1013.77 1013.69 1013.60 1013.51 1013.39 1013.24 1013.07 1012.89 1012.70 1012.53 1012.40 1012.34 1012.33 1012.39
1015.12 1014.94 1014.68 1014.36 1014.01 1013.65 1013.28 1012.92 1012.58 1012.27 1012.01 1011.80 1011.66 1011.58 1011.55 1011.57 1011.63 1011.70 1011.78 1011.88 1012.00 1012.15 1012.34 1012.58 1012.86 1013.16 1013.47 1013.75 1013.97 1014.11 1014.18 1014.16 1014.09 1013.97 1013.84 1013.72 1013.61 1013.52 1013.43 1013.34 1013.23 1013.09 1012.92 1012.75 1012.59 1012.46 1012.39 1012.39 1012.46
1015.40 1015.26 1015.05 1014.81 1014.53 1014.21 1013.85 1013.46 1013.05 1012.65 1012.27 1011.95 1011.71 1011.56 1011.49 1011.49 1011.54 1011.61 1011.69 1011.79 1011.90 1012.03 1012.21 1012.45 1012.74 1013.07 1013.41 1013.73 1013.99 1014.17 1014.25 1014.23 1014.14 1014.00 1013.84 1013.69 1013.57 1013.47 1013.40 1013.33 1013.24 1013.13 1012.98 1012.81 1012.64 1012.50 1012.42 1012.41 1012.47
1015.64 1015.56 1015.45 1015.31 1015.12 1014.86 1014.52 1014.10 1013.62 1013.10 1012.61 1012.16 1011.81 1011.57 1011.44 1011.40 1011.43 1011.50 1011.58 1011.67 1011.78 1011.90 1012.08 1012.31 1012.61 1012.96 1013.34 1013.69 1013.99 1014.20 1014.31 1014.30 1014.20 1014.04 1013.87 1013.70 1013.57 1013.48 1013.41 1013.36 1013.29 1013.18 1013.04 1012.87 1012.69 1012.53 1012.42 1012.38 1012.43
1015.80 1015.82 1015.85 1015.84 1015.76 1015.58 1015.27 1014.82 1014.25 1013.62 1012.98 1012.39 1011.91 1011.56 1011.35 1011.26 1011.26 1011.32 1011.41 1011.51 1011.62 1011.75 1011.93 1012.17 1012.49 1012.86 1013.26 1013.66 1013.99 1014.23 1014.36 1014.37 1014.27 1014.11 1013.92 1013.75 1013.61 1013.52 1013.46 1013.41 1013.35 1013.25 1013.11 1012.93 1012.72 1012.53 1012.39 1012.32 1012.34
1015.87 1016.04 1016.23 1016.39 1016.45 1016.36 1016.07 1015.59 1014.93 1014.16 1013.37 1012.61 1011.98 1011.50 1011.19 1011.04 1011.01 1011.06 1011.16 1011.27 1011.41 1011.56 1011.77 1012.03 1012.37 1012.77 1013.20 1013.62 1013.99 1014.26 1014.41 1014.43 1014.35 1014.19 1014.00 1013.82 1013.68 1013.58 1013.52 1013.47 1013.41 1013.32 1013.17 1012.97 1012.75 1012.54 1012.36 1012.25 1012.23
1015.90 1016.25 1016.63 1016.97 1017.18 1017.18 1016.93 1016.41 1015.66 1014.75 1013.78 1012.85 1012.04 1011.41 1010.99 1010.76 1010.70 1010.74 1010.85 1011.00 1011.17 1011.36 1011.60 1011.90 1012.26 1012.68 1013.13 1013.58 1013.97 1014.26 1014.43 1014.48 1014.41 1014.26 1014.07 1013.89 1013.74 1013.63 1013.57 1013.52 1013.46 1013.36 1013.21 1013.01 1012.78 1012.55 1012.34 1012.20 1012.14
1015.92 1016.47 1017.07 1017.60 1017.95 1018.05 1017.83 1017.27 1016.43 1015.37 1014.23 1013.12 1012.14 1011.36 1010.82 1010.51 1010.40 1010.43 1010.56 1010.74 1010.94 1011.18 1011.45 1011.78 1012.16 1012.59 1013.06 1013.51 1013.91 1014.22 1014.41 1014.47 1014.42 1014.28 1014.10 1013.92 1013.77 1013.66 1013.59 1013.53 1013.47 1013.38 1013.24 1013.05 1012.82 1012.58 1012.36 1012.19 1012.09
1015.98 1016.74 1017.54 1018.25 1018.75 1018.93 1018.74 1018.15 1017.22 1016.04 1014.74 1013.46 1012.31 1011.39 1010.74 1010.34 1010.18 1010.20 1010.34 1010.54 1010.78 1011.04 1011.33 1011.67 1012.05 1012.48 1012.94 1013.39 1013.79 1014.10 1014.31 1014.39 1014.36 1014.24 1014.08 1013.91 1013.76 1013.65 1013.57 1013.52 1013.46 1013.38 1013.26 1013.08 1012.87 1012.64 1012.42 1012.23 1012.10
1016.10 1017.04 1018.02 1018.89 1019.51 1019.77 1019.60 1018.99 1018.00 1016.72 1015.30 1013.89 1012.62 1011.58 1010.82 1010.35 1010.14 1010.13 1010.26 1010.46 1010.70 1010.96 1011.25 1011.57 1011.94 1012.34 1012.77 1013.19 1013.58 1013.89 1014.11 1014.21 1014.21 1014.12 1013.99 1013.84 1013.70 1013.59 1013.52 1013.47 1013.42 1013.36 1013.26 1013.11 1012.93 1012.72 1012.51 1012.32 1012.17
1016.28 1017.36 1018.47 1019.45 1020.16 1020.48 1020.34 1019.74 1018.72 1017.39 1015.91 1014.42 1013.07 1011.95 1011.12 1010.59 1010.32 1010.27 1010.36 1010.53 1010.74 1010.97 1011.22 1011.49 1011.80 1012.15 1012.53 1012.91 1013.27 1013.58 1013.81 1013.94 1013.97 1013.93 1013.83 1013.71 1013.60 1013.51 1013.44 1013.40 1013.37 1013.32 1013.25 1013.14 1012.99 1012.82 1012.63 1012.45 1012.28
1016.48 1017.65 1018.83 1019.88 1020.64 1021.00 1020.89 1020.31 1019.31 1017.99 1016.51 1015.02 1013.66 1012.51 1011.64 1011.06 1010.74 1010.63 1010.66 1010.76 1010.91 1011.07 1011.24 1011.43 1011.66 1011.93 1012.24 1012.57 1012.89 1013.18 1013.42 1013.58 1013.66 1013.66 1013.62 1013.54 1013.46 1013.39 1013.35 1013.32 1013.30 1013.27 1013.22 1013.15 1013.05 1012.91 1012.75 1012.58 1012.42
1016.67 1017.86 1019.05 1020.10 1020.87 1021.25 1021.18 1020.65 1019.72 1018.48 1017.08 1015.66 1014.34 1013.22 1012.36 1011.75 1011.38 1011.20 1011.15 1011.16 1011.21 1011.26 1011.33 1011.41 1011.54 1011.71 1011.93 1012.19 1012.47 1012.74 1012.98 1013.17 1013.29 1013.35 1013.36 1013.33 1013.29 1013.25 1013.22 1013.21 1013.20 1013.20 1013.18 1013.14 1013.07 1012.97 1012.85 1012.70 1012.55
1016.84 1017.98 1019.11 1020.11 1020.85 1021.23 1021.19 1020.74 1019.93 1018.83 1017.57 1016.29 1015.08 1014.04 1013.22 1012.61 1012.20 1011.95 1011.80 1011.70 1011.62 1011.55 1011.49 1011.46 1011.46 1011.53 1011.66 1011.84 1012.06 1012.31 1012.54 1012.74 1012.90 1013.00 1013.05 1013.07 1013.07 1013.06 1013.06 1013.06 1013.07 1013.08 1013.09 1013.07 1013.04 1012.98 1012.90 1012.78 1012.65
1016.98 1018.00 1019.02 1019.92 1020.59 1020.96 1020.96 1020.61 1019.94 1019.02 1017.96 1016.87 1015.82 1014.91 1014.15 1013.56 1013.13 1012.81 1012.56 1012.34 1012.14 1011.94 1011.75 1011.59 1011.48 1011.43 1011.46 1011.56 1011.72 1011.91 1012.12 1012.32 1012.48 1012.61 1012.70 1012.75 1012.78 1012.81 1012.82 1012.85 1012.87 1012.90 1012.93 1012.94 1012.94 1012.92 1012.87 1012.80 1012.71
Thickness
5780 5778 5776 5764 5745 5731 5730 5740 5747 5750 5756 5763 5766 5763 5757 5752 5748 5745 5764 5772 5772 5770 5768 5766 5764 5762 5760 5758 5756 5754 5752 5751 5749 5748 5747 5746 5745 5745 5744 5744 5744 5744 5745 5744 5745 5746 5747 5748 5749
5778 5776 5767 5752 5733 5721 5728 5743 5746 5753 5762 5767 5766 5763 5757 5754 5760 5761 5765 5769 5770 5768 5765 5763 5761 5759 5757 5755 5753 5751 5750 5748 5746 5744 5743 5742 5741 5741 5740 5740 5741 5741 5741 5741 5742 5742 5743 5744 5745
5776 5772 5755 5741 5729 5724 5733 5746 5750 5760 5768 5766 5760 5760 5756 5754 5760 5762 5767 5769 5767 5765 5762 5761 5759 5757 5755 5753 5750 5748 5747 5745 5743 5742 5740 5739 5738 5737 5737 5736 5736 5737 5737 5737 5737 5738 5739 5740 5741
5768 5757 5748 5735 5729 5738 5743 5750 5755 5758 5764 5766 5760 5753 5757 5764 5765 5766 5768 5767 5764 5762 5760 5758 5756 5754 5752 5749 5747 5745 5744 5742 5740 5739 5737 5736 5735 5734 5733 5733 5733 5732 5733 5733 5733 5734 5735 5736 5738
5761 5746 5734 5727 5732 5744 5751 5756 5758 5756 5758 5760 5757 5749 5751 5763 5769 5768 5766 5765 5761 5759 5757 5755 5753 5751 5749 5747 5745 5743 5741 5739 5738 5736 5735 5733 5732 5731 5730 5730 5729 5729 5729 5729 5730 5730 5731 5732 5734
5745 5737 5724 5720 5732 5745 5752 5757 5758 5757 5757 5758 5755 5748 5749 5762 5763 5763 5764 5762 5760 5757 5755 5752 5751 5749 5746 5744 5742 5740 5739 5737 5735 5734 5732 5731 5730 5729 5728 5727 5726 5726 5725 5726 5726 5727 5728 5729 5730
5737 5729 5723 5726 5730 5739 5751 5758 5755 5754 5753 5756 5758 5746 5748 5756 5761 5762 5761 5759 5757 5754 5752 5750 5748 5746 5744 5742 5740 5738 5737 5735 5733 5732 5730 5729 5728 5726 5725 5724 5723 5723 5723 5722 5723 5724 5725 5726 5727
5740 5728 5723 5724 5728 5736 5751 5757 5759 5757 5755 5764 5762 5747 5745 5756 5761 5759 5757 5754 5752 5751 5749 5747 5746 5744 5742 5740 5738 5736 5734 5733 5731 5729 5728 5726 5725 5723 5722 5721 5720 5720 5720 5720 5720 5720 5722 5722 5724
5740 5721 5715 5723 5728 5737 5751 5751 5757 5763 5759 5760 5761 5759 5760 5762 5759 5754 5750 5748 5747 5747 5746 5745 5743 5741 5739 5738 5736 5734 5732 5730 5728 5726 5725 5723 5721 5720 5718 5717 5717 5717 5717 5716 5717 5717 5718 5719 5720
5730 5715 5721 5734 5738 5740 5747 5748 5752 5753 5750 5751 5754 5758 5762 5758 5754 5749 5746 5743 5743 5743 5743 5743 5741 5739 5737 5736 5733 5731 5729 5727 5725 5723 5721 5719 5718 5716 5715 5714 5713 5713 5713 5712 5713 5713 5714 5714 5716
5728 5722 5729 5736 5742 5745 5745 5747 5753 5747 5743 5749 5751 5753 5755 5753 5750 5748 5746 5745 5744 5744 5743 5742 5740 5738 5735 5733 5731 5729 5726 5724 5722 5720 5718 5716 5714 5712 5711 5709 5708 5708 5708 5708 5708 5708 5709 5710 5711
5725 5728 5733 5736 5744 5744 5743 5746 5747 5747 5750 5760 5760 5758 5754 5750 5748 5748 5746 5745 5745 5743 5742 5741 5740 5737 5734 5731 5729 5726 5724 5722 5719 5717 5715 5713 5710 5708 5706 5705 5704 5703 5702 5702 5703 5703 5704 5705 5707
5722 5726 5733 5738 5741 5742 5744 5743 5744 5748 5758 5761 5759 5756 5752 5750 5749 5749 5749 5747 5745 5742 5741 5740 5738 5736 5733 5729 5727 5724 5721 5719 5717 5714 5712 5709 5707 5704 5702 5701 5699 5698 5698 5698 5698 5698 5699 5701 5703
5722 5724 5728 5733 5736 5738 5738 5741 5742 5749 5756 5755 5754 5751 5751 5750 5749 5747 5745 5744 5743 5742 5741 5739 5737 5734 5731 5727 5724 5722 5719 5717 5714 5711 5709 5706 5703 5701 5699 5697 5695 5694 5694 5694 5694 5694 5695 5696 5698
5723 5718 5721 5727 5731 5734 5735 5731 5739 5752 5754 5750 5749 5749 5749 5748 5748 5747 5747 5746 5744 5742 5740 5737 5735 5732 5729 5726 5723 5720 5717 5714 5711 5709 5706 5703 5700 5698 5695 5693 5691 5690 5690 5690 5690 5690 5691 5692 5694
5715 5709 5704 5719 5727 5731 5727 5718 5741 5751 5749 5745 5745 5746 5746 5747 5748 5749 5749 5747 5745 5742 5739 5737 5736 5731 5727 5724 5721 5718 5715 5712 5709 5706 5703 5700 5697 5694 5692 5689 5688 5687 5686 5686 5686 5685 5686 5687 5689
5699 5694 5699 5711 5724 5726 5722 5720 5740 5748 5746 5743 5744 5743 5744 5744 5746 5748 5749 5747 5745 5742 5738 5735 5733 5729 5725 5722 5718 5715 5712 5709 5706 5703 5700 5697 5694 5692 5689 5686 5685 5683 5683 5682 5682 5681 5681 5682 5684
5689 5692 5697 5704 5719 5721 5717 5722 5737 5745 5744 5743 5743 5742 5742 5743 5748 5750 5749 5747 5744 5740 5737 5733 5730 5726 5723 5719 5715 5712 5709 5706 5704 5701 5698 5695 5692 5689 5686 5684 5682 5680 5679 5678 5678 5678 5678 5679 5680
5701 5698 5697 5707 5721 5718 5716 5721 5733 5742 5742 5741 5741 5741 5742 5745 5750 5750 5748 5745 5741 5737 5734 5731 5727 5723 5720 5715 5711 5708 5705 5703 5701 5699 5696 5693 5690 5687 5684 5681 5679 5677 5675 5674 5674 5674 5674 5675 5676
5702 5697 5698 5708 5719 5718 5714 5720 5733 5740 5742 5744 5743 5742 5743 5744 5745 5746 5745 5742 5739 5735 5732 5728 5726 5723 5719 5715 5711 5707 5704 5701 5699 5697 5694 5691 5688 5685 5682 5679 5676 5675 5673 5672 5671 5671 5670 5671 5672
5700 5698 5700 5703 5712 5716 5713 5714 5725 5736 5742 5745 5747 5746 5746 5745 5744 5743 5742 5740 5738 5734 5732 5730 5725 5722 5718 5714 5710 5706 5702 5700 5697 5695 5692 5690 5687 5683 5680 5678 5675 5673 5672 5670 5669 5668 5667 5666 5668
5695 5710 5709 5707 5700 5693 5703 5689 5713 5722 5731 5739 5742 5743 5744 5746 5745 5743 5742 5739 5737 5736 5733 5729 5725 5721 5717 5713 5709 5705 5700 5696 5694 5692 5690 5688 5686 5682 5679 5677 5675 5673 5671 5669 5668 5667 5666 5665 5665
5705 5715 5711 5706 5700 5691 5695 5690 5700 5716 5725 5732 5738 5741 5744 5745 5745 5744 5742 5741 5738 5735 5732 5728 5724 5720 5716 5712 5709 5705 5700 5697 5694 5691 5689 5687 5684 5681 5679 5676 5674 5672 5670 5668 5667 5666 5665 5664 5663
5715 5709 5702 5693 5687 5679 5689 5688 5691 5707 5719 5727 5736 5740 5743 5744 5744 5743 5742 5739 5736 5733 5730 5726 5722 5718 5714 5711 5708 5704 5701 5696 5693 5690 5687 5685 5682 5680 5678 5676 5673 5671 5669 5668 5666 5665 5664 5663 5663
5709 5692 5674 5673 5667 5674 5689 5688 5692 5717 5725 5728 5731 5736 5740 5742 5741 5740 5738 5736 5733 5731 5728 5724 5720 5716 5713 5710 5707 5704 5701 5697 5693 5690 5687 5684 5680 5678 5677 5675 5673 5671 5669 5667 5666 5664 5663 5663 5662
5705 5696 5675 5666 5665 5670 5684 5686 5702 5723 5728 5732 5734 5736 5739 5739 5738 5738 5737 5735 5733 5730 5726 5722 5719 5715 5712 5709 5706 5704 5700 5697 5693 5691 5687 5684 5681 5679 5677 5675 5673 5671 5669 5667 5665 5664 5663 5662 5661
5704 5695 5696 5677 5673 5667 5676 5690 5708 5725 5726 5729 5730 5732 5732 5734 5735 5735 5735 5733 5731 5728 5725 5722 5718 5714 5712 5709 5706 5702 5700 5697 5694 5691 5688 5684 5682 5680 5678 5676 5673 5671 5669 5667 5665 5663 5662 5661 5661
5715 5699 5685 5676 5664 5660 5672 5678 5683 5705 5712 5717 5721 5723 5727 5730 5731 5732 5732 5731 5730 5728 5725 5721 5717 5714 5711 5708 5705 5703 5700 5697 5694 5690 5687 5685 5683 5681 5678 5676 5673 5671 5669 5667 5665 5663 5662 5660 5660
5707 5697 5683 5671 5671 5659 5660 5670 5698 5701 5707 5709 5713 5717 5720 5724 5726 5727 5727 5728 5726 5724 5721 5718 5715 5712 5710 5707 5704 5702 5699 5697 5693 5690 5688 5685 5683 5681 5679 5676 5674 5671 5669 5667 5665 5663 5661 5660 5659
5716 5704 5688 5678 5670 5663 5659 5669 5705 5703 5704 5706 5710 5714 5717 5720 5721 5722 5722 5721 5720 5719 5717 5715 5713 5711 5709 5707 5703 5701 5699 5696 5692 5690 5688 5686 5683 5681 5679 5677 5674 5671 5669 5667 5665 5663 5661 5660 5658